Location: Cactus School
(34.5700°N, 118.0931°W)
Time: 18:17:52
(UTC-07:00)

Transit 4A - Pass Details

Date: 20 April 2024
Orbit: 871 x 971 km, 66.8° (Epoch: 21 May)

Event Time Altitude Azimuth Distance (km) Brightness Sun altitude
Rises 13:06:34 0° 206° (SSW) 3,557 11.3 67.1°
Reaches altitude 10° 13:09:06 10° 207° (SSW) 2,602 10.8 67.0°
Maximum altitude 13:15:08 84° 296° (WNW) 909 9.4 66.7°
Drops below altitude 10° 13:21:04 10° 25° (NNE) 2,551 10.1 66.3°
Sets 13:23:32 0° 26° (NNE) 3,484 10.7 66.2°
